Погода в Семиярке

Погода в Семиярке : погода сейчас, прогноз погоды и архив. Всё, что Вы хотите узнать о погоде в Семиярке!

Хотите узнать прогноз погоды в Семиярке? Тогда Вам сюда: Погода в Семиярке

Поиск расширенной информации на нашем сайте:

Другие новости

Новости СМИ2

Главная страница сайта

Новости сайта

03.07.2017

Напоминаем, что на нашем специализированном сайте Метеоцентр.Азия вы можете получить высокодетализированные автоматические прогнозы погоды по пунктам России, СНГ и мира в авиационном формате (включающие направление и скорость ветра, видимость, явления погоды, количество и форму облачности, нижнюю и верхнюю границу облачности).


Погода в Семиярке - сегодня

Время (UTC), дата Ветер
(°,м/с) 
Видим.   Явления Облачность Т
(°С)
Тd
(°С)
f(%) Тe
(°С)
Pmin
(гПа)
dP
(гПа)
Po
(мм)
O2
(г/м3)
Тmin Tmax R s Состояние
почвы
00 17.08.17 тихо ()   20000 м    ясно 
+8.3 +7.2 93 +8  1018.1  750  292           
03 17.08.17 тихо ()   20000 м    ясно 
+15.9 +10 68 +17  1018.1  0.5  750  284           
06 17.08.17 320 (СЗ) 20000 м    8/8 600 м 
[Cu med, cong]
+21.2 +7.8 42 +21  1016.9  -0.9  750  279  +8.3         
09 17.08.17 360 (С) 20000 м    6/6 600 м 
[Cu med, cong]
+22.8 +7.5 37 +23  1016.1  -0.7  749  277           
12 17.08.17 320 (СЗ) 20000 м    4/4 600 м 
[Sc diur, vesp]
+24.1 +5.6 30 +24  1015.3  -0.7  749  276           
15 17.08.17 360 (С) н/о    1/1 600 м 
[Sc diur, vesp]
+17.2 +9.8 62 +19  1017  1.3  750  282    +24.9       
18 17.08.17 360 (С) н/о    3/3 600 м 
[Sc diur, vesp]
+14.3 +11.1 81 +18  1016.6  -0.6  749  285    +24.9       
21 17.08.17 270 (З) н/о    4/4 600 м 
[Sc diur, vesp]
+15.7 +12.4 81 +21  1015.7  -0.8  749  283           
00 18.08.17 270 (З) 20000 м    10/10 600 м 
[Sc diur, vesp]
+15.5 +13.9 90 +23  1016.1  0.4  749  283           
03 18.08.17 270 (З) 20000 м  в посл. час ливневой дождь  10/10 600 м кучево-дожд. 
[Cb calv]
+17.2 +15.3 89 +27  1016.6  0.6  749  281      0.4     
06 18.08.17 050 (СВ) 20000 м  {ливн. осадки}  9/9 600 м кучево-дожд. 
[Cb calv]
+21.9 +14.8 64 +30  1016  -0.3  749  276  +14    0.4     
09 18.08.17 050 (СВ) 20000 м    9/9 600 м кучево-дожд. 
[Cb calv]
+23.3 +14.3 57 +31  1015.2  -0.7  749  275           
12 18.08.17 360 (С) 20000 м    9/9 600 м кучево-дожд., верхняя 
[Cb calv|Ci fib]
+22.9 +10.6 46 +25  1016.2  0.9  749  277           
15 18.08.17 050 (СВ) н/о    9/6 600 м кучево-дожд., средняя, верхняя 
[Cb calv|Ac trans|Ci sp]
+18.3 +9.8 58 +20  1017.8  1.3  750  282    +24.5       
18 18.08.17 050 (СВ) н/о    6/4 600 м верхняя 
[Sc diur, vesp|Ci sp]
+14.5 +10.5 77 +17  1018.4  0.4  751  285    +24.5       
21 18.08.17 050 (СВ) н/о    6/3 600 м верхняя 
[Sc diur, vesp|Ci fib]
+12.7 +8.9 78 +13  1018.8  0.3  751  288           
00 19.08.17 050 (СВ) 20000 м    8/6 600 м средняя 
[Sc diur, vesp|Ac trans]
+10.3 +9.3 94 +10  1019.9  0.9  752  290           
03 19.08.17 050 (СВ) 20000 м    6/3 600 м средняя, верхняя 
[Sc diur, vesp|Ac cast|Ci sp]
+15.7 +10.2 70 +17  1020.6  752  285           
06 19.08.17 320 (СЗ) 20000 м    9/9 600 м кучево-дожд. 
[Cb calv]
+19.4 +7.7 47 +20  1020.3  752  282  +9.5         
09 19.08.17 320 (СЗ) 20000 м    6/6 600 м 
[Cu med, cong]
+21.7 +7.7 40 +22  1019.8  -0.4  752  279           
12 19.08.17 360 (С) 20000 м    6/6 600 м кучево-дожд. 
[Cb calv]
+20 +7.3 44 +20  1020.8  0.9  753  281           
15 19.08.17 тихо ()   н/о    3/3 600 м 
[Sc diur, vesp]
+16 +10.5 70 +18  1022.3  1.2  754  285    +22.4       
18 19.08.17 тихо ()   н/о    1/1 600 м 
[Sc diur, vesp]
+12.9 +9.8 81 +14  1023.1  0.6  754  288    +22.4       
21 19.08.17 тихо ()   н/о    1/1 600 м 
[Sc diur, vesp]
+9.9 +8 88 +10  1023.2  -0.1  754  292           
00 20.08.17 тихо ()   20000 м    3/1 600 м средняя 
[Sc diur, vesp|Ac trans]
+9.1 +8.3 95 +9  1023.3  0.1  754  293           
Время (UTC), дата Ветер
(°,м/с) 
Видим.   Явления Облачность Т
(°С)
Тd
(°С)
f(%) Тe
(°С)
Pmin
(гПа)
dP
(гПа)
Po
(мм)
O2
(г/м3)
Тmin Tmax R s Состояние
почвы

Для получения пояснительной информации подведите курсор к названию столбца.

ПОГОДА в Семиярке - архив

Всё, что Вы хотите узнать о погоде в Семиярке - удобно и подробно!

Выберите нужную дату (начиная с 1 января 2015* года) и нажмите кнопку "Найти".
Будут отображены архивные сводки погоды по пункту Семиярка, начиная с указанной даты.


Отображать данные в формате CSV (для использования в таблицах Excel)


Внимание! Наш архив погоды предназначен исключительно для личного некоммерческого использования в познавательных целях. Если Вам необходимы официальные справки о состоянии погоды (для производственных, юридических, коммерческих и т.п. целей), обращайтесь в органы Росгидромета.

*Примечание: данная дата относится к архиву по метеостанциям СССР (Россия, СНГ, Балтия).
Архив по метеостанциям Зарубежной Европы и Азии (кроме Китая) хранится 10 дней, по другим регионам земного шара (Китай, Африка, Америка, Австралия, Океания) - 1 день.

Семиярка - район местоположения метеостанции


Название, широта, долгота, высота метеостанции:
Семиярка 50.9°ш. 78.3°д. 149 м над ур. моря [Казахстан]

Дополнительная информация

В oтличие oт бoльшинства пoгoдных сайтoв мы публикуем пoдрoбную метеoинфoрмацию в детальнoм прoфессиoнальнoм фoрмате.

Характеристики температуры и влажнoсти вoздуха измеряются на высoте 2 м в тени вдали oт зданий и деревьев.
Скoрoсть ветра измеряется на высoте 10 м (на урoвне рoста челoвека скoрoсть ветра ниже в 1.5-2 раза). Если метеoстанция нахoдится в гoрoде или в лесу, тo скoрoсть ветра занижена на 2-4 м/с пo сравнению с oткрытым местoм. Скoрoсть ветра над акватoриями крупных рек и oзёр, а также на вершинах хoлмoв на 2-5 м/с выше, чем в oбычных услoвиях.
Атмoсфернoе давление в разных тoчках местнoсти мoжет значительнo oтличаться oт давления на метеoстанции, в зависимoсти oт услoвий рельефа (при пoдъёме на 10 м давление пoнижается примернo на 1 мм рт.ст.).